This is the latest recevied weather packets stored in our database for station/object OZ1IEP-5. If no packets are shown the sender has not sent any weather packets the latest 10 day(s).
| Time | Temp. | Humidity | Pressure | Rain* | Wind** | Luminosity | Snow |
|---|---|---|---|---|---|---|---|
| 1787627407 | 12.22° C | 92% | 1018.8 hPa | 0 mm | - | 0 W/m² | - |
| 1787626808 | 12.78° C | 92% | 1018.9 hPa | 0 mm | - | 0 W/m² | - |
| 1787626206 | 12.78° C | 92% | 1018.8 hPa | 0 mm | - | 0 W/m² | - |
| 1787625606 | 12.78° C | 92% | 1019 hPa | 0 mm | - | 0 W/m² | - |
| 1787625009 | 12.78° C | 92% | 1019.1 hPa | 0 mm | - | 0 W/m² | - |
| 1787624406 | 13.33° C | 92% | 1018.9 hPa | 0 mm | - | 0 W/m² | - |
| 1787623806 | 13.89° C | 93% | 1018.9 hPa | 0 mm | - | 0 W/m² | - |
| 1787623208 | 13.33° C | 93% | 1018.9 hPa | 0 mm | - | 0 W/m² | - |
| 1787622606 | 13.33° C | 92% | 1018.9 hPa | 0 mm | - | 0 W/m² | - |
| 1787622005 | 13.33° C | 92% | 1019.1 hPa | 0 mm | - | 0 W/m² | - |
| 1787621409 | 13.33° C | 92% | 1019 hPa | 0 mm | - | 0 W/m² | - |
| 1787620806 | 13.33° C | 92% | 1019 hPa | 0 mm | - | 0 W/m² | - |
| 1787620206 | 13.33° C | 92% | 1019 hPa | 0 mm | - | 0 W/m² | - |
| 1787619608 | 13.33° C | 92% | 1019.1 hPa | 0 mm | - | 0 W/m² | - |
| 1787619006 | 12.78° C | 92% | 1019.2 hPa | 0 mm | - | 0 W/m² | - |
| 1787618405 | 13.33° C | 92% | 1019.2 hPa | 0 mm | - | 0 W/m² | - |
| 1787617809 | 13.33° C | 91% | 1019.2 hPa | 0 mm | - | 0 W/m² | - |
| 1787617206 | 13.33° C | 91% | 1019.1 hPa | 0 mm | - | 0 W/m² | - |
| 1787616606 | 13.33° C | 91% | 1019.3 hPa | 0 mm | - | 0 W/m² | - |
| 1787616009 | 13.33° C | 91% | 1019.3 hPa | 0 mm | - | 0 W/m² | - |
| 1787615406 | 13.33° C | 91% | 1019.3 hPa | 0 mm | - | 0 W/m² | - |
| 1787614806 | 13.33° C | 91% | 1019.3 hPa | 0 mm | - | 0 W/m² | - |
| 1787614209 | 13.33° C | 90% | 1019.3 hPa | 0 mm | - | 0 W/m² | - |
| 1787613606 | 13.33° C | 91% | 1019.4 hPa | 0 mm | - | 0 W/m² | - |
| 1787613005 | 13.89° C | 91% | 1019.4 hPa | 0 mm | - | 0 W/m² | - |
* Rain latest hour (hover to see other rain measurements)
** Current wind speed in m/s (hover to see current wind gust speed)